Location: Drummondville
(45.8830°N, 72.4830°W)
Time: 17:53:27
(UTC-05:00)

N. Korean satellite - Pass Details

Date: 14 November 2017
Orbit: 460 x 515 km, 97.2° (Epoch: 17 November)

Event Time Altitude Azimuth Distance (km) Brightness Sun altitude
Rises 17:13:38 0° 147° (SSE) 2,479 10.0 -9.6°
Reaches altitude 10° 17:15:45 10° 138° (SE) 1,613 9.0 -10.0°
Maximum altitude 17:18:57 36° 71° (ENE) 768 7.0 -10.5°
Drops below altitude 10° 17:22:12 10° 4° (N) 1,646 9.1 -11.1°
Sets 17:24:22 0° 356° (N) 2,538 10.1 -11.4°
